Back to catalog

STARLINK-5995

AliveCommunicationsVLEO
NORAD 56456·PAYLOAD·🇺🇸 United States

Launched May 10, 2023 from Vandenberg Space Force Base

Loading…

Next Passes (next 24 hours)

TLE

FreshSource: CelesTrak SupGP

Epoch: Sep 14, 2026, 21:46 UTC

1 56456C 23064J   26257.90743056 -.00020001  00000+0 -16764-2 0  2574
2 56456  70.0028  27.4155 0003021 276.9463 238.0566 14.98334517    18

Track STARLINK-5995 in real time with AllMySat

Download on the App Store